Location: Unspecified
(0.0000°N, 0.0000°E)
Time: 13:50:25
(UTC+00:00)

LightSail 2 - Pass Details

Date: 29 March 2020
Orbit: 693 x 726 km, 24.0° (Epoch: 02 April)

Event Time Altitude Azimuth Distance (km) Brightness Sun altitude
Exits shadow 05:34:30 - 267° (W) 2,219 7.0 -7.5°
Reaches altitude 10° 05:34:44 10° 269° (W) 2,139 6.9 -7.5°
Maximum altitude 05:39:22 37° 335° (NNW) 1,079 5.9 -6.3°
Drops below altitude 10° 05:44:02 10° 42° (NE) 2,151 8.4 -5.2°
Sets 05:46:37 0° 51° (NE) 3,073 9.4 -4.5°
